Home   Weather   Majuro   Past weeks

Flag for Marshall Islands Past Weather in Majuro, Marshall Islands — Yesterday and Last 2 Weeks

Now
84 °F

Partly cloudy.


Feels Like: 95 °F
Forecast: 82 / 88 °F
Wind: 7 mph from Southeast

Location: Majuro Atoll

Current Time: Aug 31, 2016 at 5:20:26 AM

Latest Report: Aug 31, 2016 at 4:51 AM


Visibility: 15 mi

Pressure: 29.81 "Hg

Humidity: 79%

Dew Point: 77 °F

Location of MajuroLocation

Past Weather in Majuro — Graph

°F

Majuro Temperature Yesterday

Maximum temperature yesterday: 89 °F (at 2:53 PM)
Minimum temperature yesterday: 83 °F (at 12:52 AM)
Average temperature yesterday: 86 °F

High & Low Weather Summary for the Past Weeks

 TemperatureHumidityPressure
High90 °F (Aug 24, 1:51 PM)94% (Aug 19, 1:50 PM)30.89 "Hg (Aug 19, 1:50 PM)
Low78 °F (Aug 19, 1:50 PM)68% (Aug 24, 2:51 PM)29.68 "Hg (Aug 22, 11:58 AM)
Average84 °F79%29.81 "Hg
* Reported Aug 16 3:53 AM — Aug 31 3:53 AM, Majuro, Weather by CustomWeather, © 2016

Note: Actual official high and low records may vary slightly from our data, if they occured in-between our weather recording intervals... More about our weather records

Advertising

Majuro Weather History for the Previous 24 Hours

Scroll right to see more
 ConditionsComfort  
Time TempWeatherWind HumidityBarometerVisibility
3:53 AM
Wed, Aug 31
83 °FPartly cloudy.6 mph82%29.81 "Hg15 mi
2:54 AM84 °FPassing clouds.6 mph82%29.82 "Hg15 mi
1:50 AM84 °FPassing clouds.No wind81%29.84 "Hg15 mi
12:53 AM85 °FPassing clouds.8 mph78%29.85 "Hg15 mi
11:50 PM
Tue, Aug 30
85 °FPassing clouds.6 mph79%29.86 "Hg15 mi
10:52 PM85 °FPartly cloudy.3 mph78%29.87 "Hg15 mi
9:50 PM85 °FPartly cloudy.3 mph79%29.87 "Hg15 mi
8:53 PM85 °FPartly cloudy.5 mph79%29.85 "Hg15 mi
7:53 PM85 °FPartly cloudy.7 mph78%29.84 "Hg15 mi
6:52 PM85 °FBroken clouds.No wind75%29.82 "Hg15 mi
5:58 PM84 °FBroken clouds.7 mph81%29.80 "Hg15 mi
4:51 PM86 °FBroken clouds.12 mph74%29.79 "Hg15 mi
3:55 PM87 °FBroken clouds.12 mph77%29.79 "Hg15 mi
2:53 PM89 °FScattered clouds.10 mph71%29.79 "Hg20 mi
1:50 PM89 °FScattered clouds.10 mph72%29.81 "Hg20 mi
12:50 PM89 °FScattered clouds.7 mph73%29.83 "Hg20 mi
11:51 AM89 °FBroken clouds.10 mph71%29.85 "Hg20 mi
10:50 AM89 °FPartly sunny.8 mph71%29.87 "Hg20 mi
9:51 AM89 °FScattered clouds.7 mph73%29.88 "Hg20 mi
6:51 AM84 °FMostly cloudy.6 mph80%29.82 "Hg15 mi
5:55 AM83 °FPassing clouds.6 mph80%29.80 "Hg15 mi
Weather by CustomWeather, © 2016

See weather overviewHow to use our weather pages